When you browse on this site, cookies collect data to enhance your experience and personalize the content and advertising you see.
Visit our Privacy Policy to learn more. By continuing to use the site, you agree to this use of cookies and data.
  • In Romania
  • List of Countries
  • For 7 days
  • Water Temperature
  • Satellite Maps
  • Weather Map
  • Weather Widgets
  • user-avatar
    Login

    Hourly Weather Mauritius

    Today, 22 March, Friday

    Time Temperature Precipitation Wind Pressure Humidity
    00:00 +26°C° 0 mm 4 mps 722 mmHg 84%
    01:00 +26°C° 0 mm 4 mps 721 mmHg 84%
    02:00 +26°C° 0 mm 5 mps 721 mmHg 85%
    03:00 +26°C° 0 mm 5 mps 721 mmHg 85%
    04:00 +26°C° 0 mm 5 mps 721 mmHg 85%
    05:00 +26°C° 0 mm 5 mps 721 mmHg 85%
    06:00 +26°C° 0 mm 5 mps 721 mmHg 85%
    07:00 +26°C° 0 mm 5 mps 721 mmHg 85%
    08:00 +27°C° 0.1 mm 5 mps 721 mmHg 81%
    09:00 +28°C° 0.1 mm 6 mps 721 mmHg 77%
    10:00 +29°C° 0.1 mm 6 mps 722 mmHg 73%
    11:00 +29°C° 0.5 mm 6 mps 721 mmHg 73%
    12:00 +29°C° 0.5 mm 6 mps 721 mmHg 73%
    13:00 +29°C° 0.5 mm 6 mps 721 mmHg 73%
    14:00 +29°C° 0.5 mm 6 mps 721 mmHg 74%
    15:00 +28°C° 0.5 mm 6 mps 720 mmHg 75%
    16:00 +28°C° 0.5 mm 6 mps 720 mmHg 77%
    17:00 +27°C° 0.1 mm 6 mps 720 mmHg 79%
    18:00 +27°C° 0.1 mm 5 mps 720 mmHg 82%
    19:00 +26°C° 0.1 mm 5 mps 720 mmHg 85%
    20:00 +26°C° 0.1 mm 5 mps 720 mmHg 84%
    21:00 +26°C° 0.1 mm 6 mps 720 mmHg 84%
    22:00 +27°C° 0.1 mm 6 mps 721 mmHg 84%
    23:00 +26°C° 0.1 mm 6 mps 720 mmHg 84%

    Tomorrow, 23 March, Saturday

    Time Temperature Precipitation Wind Pressure Humidity
    00:00 +26°C° 0.1 mm 6 mps 720 mmHg 84%
    01:00 +26°C° 0.1 mm 6 mps 720 mmHg 84%
    02:00 +26°C° 0.1 mm 6 mps 720 mmHg 84%
    03:00 +26°C° 0.1 mm 6 mps 719 mmHg 84%
    04:00 +26°C° 0.1 mm 6 mps 719 mmHg 85%
    05:00 +26°C° 0.1 mm 6 mps 719 mmHg 84%
    06:00 +26°C° 0.1 mm 6 mps 719 mmHg 84%
    07:00 +26°C° 0.1 mm 5 mps 719 mmHg 84%
    08:00 +27°C° 0.3 mm 6 mps 720 mmHg 81%
    09:00 +28°C° 0.3 mm 7 mps 720 mmHg 78%
    10:00 +28°C° 0.3 mm 7 mps 721 mmHg 75%
    11:00 +29°C° 0.2 mm 7 mps 720 mmHg 73%
    12:00 +29°C° 0.2 mm 7 mps 720 mmHg 71%
    13:00 +30°C° 0.2 mm 7 mps 720 mmHg 70%
    14:00 +29°C° 0.1 mm 7 mps 719 mmHg 71%
    15:00 +29°C° 0.1 mm 7 mps 719 mmHg 72%
    16:00 +29°C° 0.1 mm 7 mps 718 mmHg 73%
    17:00 +28°C° 0.1 mm 7 mps 718 mmHg 76%
    18:00 +27°C° 0.1 mm 7 mps 719 mmHg 79%
    19:00 +27°C° 0.1 mm 7 mps 719 mmHg 82%
    20:00 +27°C° 0.1 mm 7 mps 719 mmHg 82%
    21:00 +27°C° 0.1 mm 7 mps 719 mmHg 83%
    22:00 +27°C° 0.1 mm 7 mps 720 mmHg 83%
    23:00 +26°C° 0.2 mm 7 mps 719 mmHg 83%

    Day after tomorrow, 24 March, Sunday

    Time Temperature Precipitation Wind Pressure Humidity
    00:00 +26°C° 0.2 mm 7 mps 719 mmHg 83%
    01:00 +26°C° 0.2 mm 7 mps 719 mmHg 84%
    02:00 +26°C° 0.2 mm 7 mps 719 mmHg 83%
    03:00 +26°C° 0.2 mm 7 mps 718 mmHg 83%
    04:00 +26°C° 0.2 mm 7 mps 718 mmHg 83%
    05:00 +26°C° 0.1 mm 7 mps 718 mmHg 82%
    06:00 +26°C° 0.1 mm 7 mps 718 mmHg 82%
    07:00 +26°C° 0.1 mm 7 mps 718 mmHg 81%
    08:00 +27°C° 0.1 mm 7 mps 718 mmHg 78%
    09:00 +28°C° 0.1 mm 7 mps 719 mmHg 75%
    10:00 +29°C° 0.1 mm 8 mps 719 mmHg 72%
    11:00 +29°C° 0.5 mm 8 mps 719 mmHg 72%
    12:00 +29°C° 0.5 mm 8 mps 718 mmHg 72%
    13:00 +29°C° 0.5 mm 7 mps 718 mmHg 72%
    14:00 +29°C° 0.5 mm 8 mps 717 mmHg 74%
    15:00 +28°C° 0.5 mm 8 mps 717 mmHg 76%
    16:00 +28°C° 0.5 mm 8 mps 716 mmHg 78%
    17:00 +27°C° 0.5 mm 8 mps 717 mmHg 80%
    18:00 +27°C° 0.5 mm 8 mps 717 mmHg 82%
    19:00 +26°C° 0.5 mm 7 mps 717 mmHg 84%
    20:00 +26°C° 0.1 mm 7 mps 718 mmHg 84%
    21:00 +26°C° 0.1 mm 7 mps 718 mmHg 83%
    22:00 +26°C° 0.1 mm 7 mps 718 mmHg 83%
    23:00 +26°C° 0.1 mm 7 mps 718 mmHg 83%

    25 March, Monday

    Time Temperature Precipitation Wind Pressure Humidity
    00:00 +26°C° 0.1 mm 7 mps 718 mmHg 83%
    01:00 +26°C° 0.1 mm 7 mps 717 mmHg 83%
    02:00 +26°C° 0.1 mm 7 mps 717 mmHg 82%
    03:00 +26°C° 0.1 mm 7 mps 717 mmHg 82%
    04:00 +26°C° 0.1 mm 7 mps 716 mmHg 82%
    05:00 +26°C° 0.1 mm 7 mps 717 mmHg 82%
    06:00 +26°C° 0.1 mm 6 mps 717 mmHg 82%
    07:00 +26°C° 0.1 mm 6 mps 717 mmHg 81%
    08:00 +27°C° 0.1 mm 7 mps 718 mmHg 78%
    09:00 +28°C° 0.1 mm 7 mps 718 mmHg 75%
    10:00 +29°C° 0.1 mm 7 mps 718 mmHg 72%
    11:00 +29°C° 0.3 mm 7 mps 718 mmHg 72%
    12:00 +29°C° 0.3 mm 7 mps 718 mmHg 71%
    13:00 +29°C° 0.3 mm 7 mps 717 mmHg 71%
    14:00 +29°C° 0.5 mm 7 mps 717 mmHg 72%
    15:00 +28°C° 0.5 mm 7 mps 717 mmHg 73%
    16:00 +28°C° 0.5 mm 6 mps 717 mmHg 74%
    17:00 +28°C° 0.1 mm 6 mps 717 mmHg 76%
    18:00 +27°C° 0.1 mm 6 mps 717 mmHg 79%
    19:00 +27°C° 0.1 mm 6 mps 718 mmHg 81%
    20:00 +26°C° 0 mm 6 mps 718 mmHg 81%
    21:00 +26°C° 0 mm 6 mps 719 mmHg 81%
    22:00 +26°C° 0 mm 5 mps 719 mmHg 81%
    23:00 +26°C° 0 mm 5 mps 719 mmHg 81%

    26 March, Tuesday

    Time Temperature Precipitation Wind Pressure Humidity
    00:00 +26°C° 0 mm 5 mps 719 mmHg 81%
    01:00 +26°C° 0 mm 5 mps 719 mmHg 81%
    02:00 +26°C° 0 mm 5 mps 719 mmHg 82%
    03:00 +26°C° 0 mm 5 mps 719 mmHg 82%
    04:00 +26°C° 0 mm 5 mps 718 mmHg 82%
    05:00 +26°C° 0 mm 5 mps 719 mmHg 82%
    06:00 +26°C° 0 mm 4 mps 719 mmHg 82%
    07:00 +26°C° 0 mm 4 mps 720 mmHg 81%
    08:00 +27°C° 0 mm 4 mps 720 mmHg 77%
    09:00 +28°C° 0 mm 4 mps 720 mmHg 73%
    10:00 +29°C° 0 mm 4 mps 721 mmHg 69%
    11:00 +30°C° 0.1 mm 4 mps 720 mmHg 67%
    12:00 +30°C° 0.1 mm 4 mps 720 mmHg 66%
    13:00 +30°C° 0.1 mm 4 mps 720 mmHg 65%
    14:00 +30°C° 0.1 mm 4 mps 719 mmHg 67%
    15:00 +29°C° 0.1 mm 5 mps 719 mmHg 68%
    16:00 +29°C° 0.1 mm 5 mps 719 mmHg 70%
    17:00 +28°C° 0.1 mm 5 mps 719 mmHg 74%
    18:00 +27°C° 0.1 mm 5 mps 720 mmHg 77%
    19:00 +27°C° 0.1 mm 5 mps 720 mmHg 81%
    20:00 +27°C° 0.1 mm 5 mps 720 mmHg 82%
    21:00 +26°C° 0.1 mm 5 mps 720 mmHg 82%
    22:00 +26°C° 0.1 mm 5 mps 721 mmHg 83%
    23:00 +26°C° 0 mm 4 mps 720 mmHg 83%

    27 March, Wednesday

    Time Temperature Precipitation Wind Pressure Humidity
    00:00 +26°C° 0 mm 4 mps 720 mmHg 83%
    01:00 +26°C° 0 mm 3 mps 720 mmHg 84%
    02:00 +26°C° 0 mm 3 mps 720 mmHg 84%
    03:00 +26°C° 0 mm 3 mps 720 mmHg 84%
    04:00 +26°C° 0 mm 3 mps 719 mmHg 84%
    05:00 +26°C° 0 mm 3 mps 720 mmHg 84%
    06:00 +26°C° 0 mm 3 mps 720 mmHg 84%
    07:00 +26°C° 0 mm 3 mps 721 mmHg 83%
    08:00 +27°C° 0.1 mm 3 mps 721 mmHg 80%
    09:00 +28°C° 0.1 mm 3 mps 722 mmHg 76%
    10:00 +29°C° 0.1 mm 4 mps 722 mmHg 73%
    11:00 +29°C° 0.3 mm 4 mps 722 mmHg 71%
    12:00 +29°C° 0.3 mm 4 mps 721 mmHg 70%
    13:00 +30°C° 0.3 mm 4 mps 721 mmHg 69%
    14:00 +29°C° 0.2 mm 4 mps 721 mmHg 70%
    15:00 +29°C° 0.2 mm 4 mps 721 mmHg 71%
    16:00 +29°C° 0.2 mm 5 mps 721 mmHg 72%
    17:00 +28°C° 0 mm 5 mps 721 mmHg 75%
    18:00 +27°C° 0 mm 4 mps 721 mmHg 78%
    19:00 +26°C° 0 mm 4 mps 721 mmHg 81%
    20:00 +26°C° 0 mm 4 mps 722 mmHg 81%
    21:00 +26°C° 0 mm 4 mps 722 mmHg 81%
    22:00 +26°C° 0 mm 4 mps 722 mmHg 81%
    23:00 +26°C° 0 mm 4 mps 722 mmHg 81%
    Show more